Вернуться в каталог

OPS 6911

VELA 10

LostВоенныеHEO
NORAD 3955·PAYLOAD·🇺🇸 United States

Запущен May 23, 1969 с Cape Canaveral Space Force Station

Loading…

Ближайшие Пролёты (ближайшие 24 часа)

TLE

УстаревшееSource: Space-Track

Эпоха: Aug 8, 2025, 14:32 UTC

1 03955U 69046E   25220.60555884  .00000590  00000-0  00000-0 0  9993
2 03955  62.5463  63.7142 8192423 138.0677   0.4662  0.21421919  6344

Отслеживайте OPS 6911 в реальном времени с AllMySat

Download on the App Store